Location: Cañada de la Miga
(34.7595°N, 106.2317°W)
Time: 21:50:56
(UTC+00:00)

Transit 4A - Pass Details

Date: 07 December 2021
Orbit: 864 x 980 km, 66.8° (Epoch: 16 January)

Event Time Altitude Azimuth Distance (km) Brightness Sun altitude
Rises 12:20:59 0° 314° (NW) 3,649 - -19.7°
Reaches altitude 10° 12:24:22 10° 296° (WNW) 2,713 - -19.0°
Maximum altitude 12:28:25 18° 256° (WSW) 2,199 - -18.2°
Exits shadow 12:29:36 17° 243° (WSW) 2,249 9.5 -18.0°
Drops below altitude 10° 12:32:29 10° 216° (SW) 2,722 10.1 -17.4°
Sets 12:35:55 0° 198° (SSW) 3,665 11.0 -16.7°
